Starlink 4190

operational
NORAD ID: 53001 Int'l Des: 2022-076 Owner: SPXS Country: US Constellation: starlink
LEOCIRCULAR

Starlink 4190について

説明を読み込み中...

リアルタイム位置

3D地球を読み込み中...

次回通過

高度履歴

Altitude vs Time

uPlot chart will show altitude changes over time

軌道要素

1 53001U 22076R 25306.29133483 .00001377 00000-0 10458-3 0 9994
2 53001 53.2165 306.0321 0001366 85.8828 274.2320 15.08840305183616
Epoch: Nov 2, 2025 • Age: 16 hours

現在のステータス

高度 540.5 km
速度 7.60 km/s
衛星直下点 27.64°N, 62.2°W
打ち上げ日 Jul 7, 2022
運用期間 3.3 years
タイプ internet

技術仕様

分類 Payload
質量 297.00 kg
乾燥質量 275.00 kg
総質量 297.00 kg
長さ 0.20 m
直径 2.80 m
スパン 9.00 m
形状 Box + pan
製造者 SPXS
バスタイプ Starlink
フェーズステータス In Orbit
所有者/国 SPXS/US

大規模コンステレーション

Loading constellations...